Tracking 29799 objects as of 11-Oct-2024
HD Live streaming from Space Station
objects crossing your sky now

STARLINK-6039

Track STARLINK-6039 now!
10-day predictions
STARLINK-6039 is classified as:


NORAD ID: 56319
Int'l Code: 2023-058C
Perigee: 569.1 km
Apogee: 571.4 km
Inclination: 97.7 °
Period: 95.9 minutes
Semi major axis: 6941 km
RCS: Unknown
Launch date: April 27, 2023
Source: United States (US)
Launch site: AIR FORCE WESTERN TEST RANGE (AFWTR)
Your satellite tracking list
Your tracking list is empty




NASA's NSSDC Master Catalog

Two Line Element Set (TLE):
1 56319U 23058C   24284.58203033 -.00002608  00000-0 -19870-3 0  9992
2 56319  97.6533 283.7002 0001628  83.9641 276.1769 15.01221268 80496
Source of the keplerian elements: AFSPC